Theta_e
296 296 296 295 297 298 297 298 297 296 297 297 297 298 299 297 298 300 300 299 302 304 305 304 306 308 308 309 311 313 312 317 319 322 321 321 322 324 324 324 326 327 330 329 331 332 333 324 326 325 330 328 326 326
296 296 296 295 296 298 296 297 297 296 297 298 298 298 298 298 296 298 301 299 299 301 303 301 302 302 303 306 310 309 312 314 315 323 323 322 323 323 324 323 325 329 327 329 328 329 327 324 325 325 324 326 324 325
295 296 297 297 296 299 296 297 297 297 295 296 296 297 298 299 297 298 300 299 300 301 301 301 303 301 300 300 301 306 308 310 315 310 319 323 326 323 324 323 323 324 325 327 328 326 325 324 324 324 323 323 323 323
294 294 295 296 296 296 298 297 297 297 296 296 297 299 298 298 298 298 299 299 299 300 302 302 300 302 301 303 302 301 304 308 310 311 311 319 323 322 323 323 323 322 325 325 325 324 325 323 323 323 322 322 321 321
295 294 293 295 297 296 296 297 296 297 296 296 297 298 298 298 298 299 299 299 299 300 302 302 300 301 301 300 302 304 304 306 307 309 313 317 316 320 321 322 323 321 322 324 325 325 324 324 323 321 321 321 321 320
295 295 294 294 296 296 297 298 297 297 297 296 297 296 296 298 297 299 300 299 299 299 301 302 301 302 303 303 302 302 305 307 308 309 310 312 314 318 320 321 319 319 319 321 323 323 324 321 320 319 320 320 320 320
295 295 295 295 294 295 296 297 298 298 298 297 297 296 295 296 299 300 300 300 298 299 301 301 302 303 302 306 305 304 303 305 307 308 310 311 313 314 317 318 319 318 319 319 319 322 324 323 320 317 319 319 318 317
295 295 295 295 295 295 294 294 295 296 296 298 297 296 296 296 297 299 299 297 298 299 299 302 302 303 304 308 309 305 305 305 306 307 309 310 311 313 316 315 316 316 318 319 318 321 323 322 320 318 317 318 319 319
294 295 295 294 294 296 295 294 294 296 296 298 296 297 298 298 299 298 297 298 299 300 300 301 303 302 303 305 306 309 308 308 305 307 308 310 311 313 312 313 314 315 316 318 317 319 320 320 320 319 317 318 319 318
294 295 295 295 295 295 296 295 293 296 297 296 297 299 298 297 296 298 299 299 299 299 300 300 301 302 301 302 303 307 308 312 310 308 308 309 310 311 312 313 313 314 315 317 317 319 319 318 319 320 318 318 318 318
294 295 295 295 296 296 296 296 294 297 296 298 299 298 298 296 299 298 300 300 300 300 300 300 301 301 301 303 303 303 308 308 311 310 311 311 311 311 311 312 313 314 314 316 316 317 320 319 318 319 318 318 318 316
295 295 296 296 295 295 295 296 294 297 298 298 298 297 297 298 299 299 300 299 299 300 301 301 302 302 303 303 304 304 307 308 311 308 313 311 311 311 312 313 313 313 314 314 314 316 316 317 317 319 318 318 317 316
295 295 295 295 295 295 295 295 294 297 296 297 297 296 298 298 299 299 299 300 300 301 301 302 303 303 302 301 304 305 306 308 309 311 315 311 314 313 313 314 314 314 313 313 314 313 314 316 318 318 318 317 317 315
294 294 295 295 295 295 296 295 295 296 297 298 297 296 298 298 299 299 300 301 301 302 302 303 302 303 303 305 304 305 305 308 309 309 312 315 316 315 315 316 314 314 314 314 314 314 316 318 318 317 317 316 315 314
295 295 295 295 295 295 296 295 295 296 297 298 296 297 298 299 300 300 301 302 302 301 301 301 302 303 304 306 307 306 307 309 307 308 310 314 313 314 316 317 316 314 315 315 314 315 316 316 316 316 315 314 313 312
295 295 296 295 296 296 295 295 295 295 297 297 297 298 299 300 301 301 302 302 302 302 302 301 304 305 306 305 308 306 307 308 312 312 313 314 312 312 315 317 315 315 315 316 315 315 315 315 315 314 313 312 311 311
295 296 295 296 295 295 295 295 294 295 297 297 298 298 299 300 300 300 301 301 301 302 304 304 306 305 306 309 307 307 308 311 310 309 311 309 308 312 315 315 316 315 316 316 315 315 314 313 311 310 310 309 309 309
296 296 295 295 295 295 294 294 296 297 297 298 298 299 299 299 300 300 301 301 301 302 303 304 302 306 308 311 308 309 308 307 305 307 307 306 312 312 313 315 315 315 315 314 313 312 310 310 309 309 308 308 308 308
296 297 295 294 295 296 296 297 296 298 298 298 298 298 298 299 300 300 300 300 300 300 300 301 304 308 306 305 305 305 305 305 304 304 307 310 312 313 313 314 314 314 313 312 311 311 309 309 308 307 307 307 307 307
296 296 295 294 295 297 297 297 296 298 298 299 299 299 300 300 300 300 300 303 303 302 305 306 305 304 302 300 300 300 301 302 303 307 311 310 311 313 314 313 312 311 311 309 308 309 309 309 308 308 308 308 308 308
295 295 295 296 297 297 298 298 298 297 299 299 299 300 300 300 300 300 300 302 303 303 304 302 303 300 296 297 298 300 301 303 308 310 310 309 309 312 312 311 310 310 309 308 308 308 307 308 308 308 308 308 308 309
296 295 296 296 297 297 297 297 298 299 299 300 300 300 300 299 299 302 302 303 302 302 301 301 300 296 296 299 306 306 306 307 307 308 307 308 309 311 311 308 308 308 308 308 307 308 309 309 309 309 310 310 309 309
295 295 296 296 296 297 298 298 299 299 299 300 301 301 301 301 302 303 303 302 300 299 299 298 299 299 299 303 303 303 303 306 307 308 309 309 308 308 308 308 308 308 309 309 309 309 309 309 309 310 310 310 310 307
294 295 297 297 297 298 298 299 299 299 299 300 300 300 301 301 301 303 302 300 299 298 298 299 301 303 304 305 304 304 303 304 308 307 307 308 309 308 306 308 309 309 309 309 309 309 309 309 309 310 310 309 309 309
298 298 298 298 299 299 300 300 299 300 299 299 300 301 301 300 301 301 299 298 298 298 298 299 301 303 304 304 305 306 306 304 308 307 307 307 308 308 308 307 307 307 307 308 308 309 309 308 309 309 309 309 310 310
297 298 298 300 301 301 302 302 301 300 301 301 301 302 301 302 302 299 299 298 297 297 298 297 299 302 303 303 304 304 307 308 306 307 307 306 307 307 308 311 311 310 310 309 310 310 310 310 310 310 310 310 309 309
299 301 300 298 298 299 302 302 301 303 303 303 303 303 303 303 300 298 297 298 298 297 297 297 298 299 301 302 303 305 308 308 308 309 309 309 309 309 308 309 310 309 309 309 309 309 309 309 310 309 309 309 308 308
300 299 301 301 301 301 301 301 301 302 302 302 302 301 299 298 298 296 296 296 296 296 297 298 298 298 300 302 303 306 307 308 308 308 308 308 308 307 307 306 305 305 305 306 307 308 308 309 309 309 309 309 308 308
301 302 301 301 301 300 300 300 300 299 299 300 299 299 298 296 293 293 294 295 295 296 298 299 299 299 301 302 303 305 306 307 306 307 308 308 308 307 307 307 306 306 306 305 304 306 306 307 308 308 308 308 307 307
303 302 301 300 300 300 300 300 299 299 298 298 297 297 297 294 292 292 293 295 296 297 298 298 299 301 301 302 303 304 303 304 306 307 308 308 307 306 306 306 306 306 306 306 305 304 303 305 305 306 306 306 306 305
302 302 301 301 302 300 298 299 298 299 299 299 298 299 299 297 294 292 292 293 296 297 297 299 300 301 301 301 302 304 304 303 302 303 304 305 305 304 304 303 303 304 304 305 305 306 305 304 304 305 305 305 304 303
303 302 302 301 301 300 299 300 299 299 299 299 299 299 298 298 297 294 292 292 294 296 297 299 300 300 300 300 300 300 299 301 301 301 303 304 303 302 302 301 301 301 301 302 303 304 304 304 304 304 304 303 302 300
304 304 304 303 301 300 300 300 299 299 299 298 298 299 298 298 297 293 292 292 292 293 295 296 297 298 298 299 300 299 300 300 297 296 297 297 297 298 300 300 300 300 299 299 300 300 302 303 302 302 302 302 301 299
Wind_Speed
9 8 9 8 5 6 4 2 1 2 3 2 3 3 3 2 1 3 2 5 3 3 4 4 3 6 5 5 6 6 4 6 5 10 10 6 7 8 7 6 4 5 4 3 5 6 10 6 5 8 5 2 11 12
7 6 7 6 6 6 5 4 2 1 2 2 3 3 2 3 2 0 1 2 3 5 4 3 7 10 11 7 5 2 4 2 4 4 3 4 6 6 9 7 6 5 5 4 7 5 3 3 5 4 6 7 8 14
6 5 3 4 5 5 5 4 3 1 2 3 3 1 2 1 2 2 3 4 5 3 5 5 2 2 10 17 13 4 3 2 3 2 3 3 6 4 7 9 5 7 6 5 5 8 9 7 2 8 4 5 8 15
5 5 5 3 3 6 6 5 4 3 1 1 3 3 1 0 0 2 4 4 4 5 4 3 1 3 2 6 13 21 12 1 3 3 1 3 4 4 4 2 6 2 7 5 9 8 6 8 7 11 9 13 15 16
5 4 4 4 2 3 7 7 5 4 3 1 2 2 3 2 0 1 3 3 3 4 4 5 13 3 2 12 14 12 14 11 7 5 5 4 4 4 5 4 8 8 8 7 6 7 3 2 6 7 12 15 17 18
5 3 3 2 3 3 3 7 6 4 4 2 1 2 2 0 1 2 3 4 2 1 2 3 5 3 1 3 9 14 10 6 8 6 6 7 7 4 5 8 13 9 5 6 7 2 3 5 9 6 14 16 15 16
7 6 5 3 3 3 4 4 4 4 5 4 2 2 2 2 1 3 4 2 3 1 2 4 2 2 5 3 3 5 12 6 6 8 9 9 9 9 10 11 8 3 6 2 2 4 5 5 7 6 5 16 19 19
8 7 7 6 5 3 3 3 4 5 4 5 2 3 0 2 2 3 2 5 5 4 2 3 2 3 5 1 3 3 5 7 6 8 7 9 10 10 10 15 19 14 9 2 5 2 1 15 16 4 4 15 17 16
9 9 8 7 7 5 3 3 3 2 3 5 2 1 1 1 1 4 1 2 7 4 2 2 4 3 2 1 1 1 3 6 5 8 12 8 12 12 9 14 12 15 17 6 5 8 10 13 18 7 7 12 13 15
11 11 10 9 8 7 6 3 3 2 6 4 2 3 2 2 1 2 6 2 2 1 2 3 5 6 5 4 3 3 2 4 4 9 8 14 16 18 17 7 11 13 13 11 4 13 14 13 12 14 17 13 13 14
14 13 11 9 10 9 8 6 5 8 8 4 4 1 3 1 2 1 2 3 3 3 5 5 6 4 1 4 5 3 1 2 4 4 6 8 14 17 21 20 15 13 11 16 18 15 19 18 15 12 13 16 17 19
15 14 13 12 12 11 10 10 8 11 4 3 3 3 2 2 1 3 3 3 4 3 5 3 1 1 3 3 4 4 3 3 5 7 4 6 9 10 16 22 24 21 13 13 15 16 19 17 19 18 20 17 20 20
14 14 14 14 14 13 13 12 11 9 8 4 2 1 2 3 4 4 6 4 4 4 3 2 3 3 3 3 5 4 6 6 1 2 4 6 3 2 7 13 18 20 22 18 13 13 13 14 20 23 21 22 22 22
12 12 14 15 14 13 14 15 13 14 4 3 4 4 4 4 5 4 3 2 2 4 6 4 2 3 3 3 4 4 5 3 4 2 4 6 8 10 10 9 10 13 16 18 16 13 14 18 19 20 20 23 24 22
11 10 11 12 13 13 17 14 18 12 4 3 3 4 6 4 2 2 2 4 3 4 3 2 3 3 3 4 4 5 4 7 7 8 3 5 11 13 13 9 10 13 13 15 15 16 20 24 25 24 22 22 22 21
10 8 7 11 15 17 16 18 11 4 2 3 4 5 3 4 5 5 3 4 3 3 3 2 3 3 6 4 5 7 4 5 2 4 8 8 11 13 12 9 10 11 15 15 19 22 25 27 27 27 24 22 21 20
10 3 12 15 19 18 23 9 3 3 4 4 4 5 6 4 4 2 3 5 3 3 2 2 4 5 3 4 5 4 4 4 7 8 6 10 14 13 7 7 10 16 18 21 24 26 27 30 30 27 23 21 21 20
4 12 16 22 23 16 6 2 3 4 5 5 4 2 4 3 4 4 4 3 3 1 1 2 2 3 3 4 3 3 6 7 5 8 6 13 11 6 8 12 18 22 25 28 29 31 30 29 26 23 25 24 23 21
5 12 21 23 14 5 5 5 4 3 5 2 3 4 3 4 5 7 5 4 3 4 2 2 4 2 3 4 9 11 9 6 7 9 9 4 4 8 16 21 24 27 29 29 27 24 26 25 26 25 24 22 20 19
20 24 23 19 7 2 2 2 3 3 3 1 3 3 3 2 2 3 2 3 3 3 1 2 2 3 4 9 8 9 8 8 7 6 1 5 5 16 21 24 21 25 26 27 27 26 26 24 23 22 20 20 18 16
14 13 10 8 2 1 1 3 3 2 3 3 1 2 1 2 3 1 0 3 3 1 3 3 8 8 13 17 20 16 13 11 4 1 6 7 9 16 19 23 25 24 23 22 18 21 24 23 23 22 21 18 17 15
6 7 3 1 1 1 2 3 2 3 2 2 2 2 2 2 2 2 1 3 2 4 4 5 7 5 10 13 8 13 11 7 9 13 19 14 8 8 14 22 23 20 19 24 26 22 23 22 21 19 17 16 15 14
6 2 2 2 3 2 2 2 4 3 3 2 1 2 2 0 2 2 1 3 3 4 8 8 16 19 16 7 15 14 17 15 11 10 18 17 18 17 13 18 20 23 21 20 20 20 18 18 16 15 15 14 14 14
2 1 3 3 4 2 2 3 2 2 1 3 2 1 1 1 3 2 3 2 3 7 7 12 15 8 13 13 8 12 12 13 18 12 15 17 13 12 15 15 16 16 18 15 16 17 16 14 13 13 14 14 14 15
2 3 3 3 3 3 4 5 4 3 3 4 2 2 2 1 1 3 1 2 4 5 5 11 13 10 7 8 12 15 16 13 19 9 9 14 12 12 15 16 14 10 9 11 11 12 12 12 13 13 14 16 17 16
3 3 3 2 2 3 2 5 4 4 3 2 3 3 2 3 2 2 1 2 2 3 5 6 7 7 8 16 10 12 14 9 18 17 20 16 1 8 11 10 12 14 10 10 12 13 14 13 13 14 14 14 16 16
2 1 2 1 2 2 1 2 2 2 3 3 3 3 4 2 3 2 2 1 1 3 4 5 7 10 8 13 15 11 12 15 15 14 13 13 13 11 11 12 12 10 10 10 10 10 11 11 11 10 11 13 15 13
2 2 3 4 2 3 3 2 3 3 3 2 1 3 2 3 2 1 2 4 6 6 5 4 4 6 7 9 10 7 8 8 11 14 17 17 16 16 15 13 12 12 10 9 7 6 5 5 6 8 9 10 12 11
2 1 1 8 4 4 5 4 3 3 3 1 2 3 2 2 3 3 5 8 6 6 5 5 4 3 3 4 6 8 9 7 8 9 9 7 9 11 9 9 8 7 7 8 8 7 6 4 3 5 7 8 10 12
4 4 4 6 4 5 4 4 3 5 9 9 5 4 2 2 6 11 11 6 1 3 3 3 4 3 2 2 6 7 9 9 10 7 5 6 7 6 7 5 5 5 4 4 5 6 6 5 6 6 7 9 10 12
2 3 7 5 3 2 3 8 9 7 6 7 7 7 3 2 3 19 21 17 5 3 5 7 7 4 3 3 5 3 7 7 7 6 5 5 6 6 6 6 5 4 2 1 3 4 3 3 3 4 6 7 10 12
0 2 3 3 3 3 3 1 3 3 3 4 4 4 2 2 3 6 20 18 14 12 9 5 5 5 5 4 3 4 5 5 6 6 5 5 6 5 5 5 6 6 4 2 3 5 5 6 5 5 6 8 11 13
2 2 3 3 3 3 2 2 3 4 4 4 5 4 3 3 3 5 10 15 13 13 11 7 6 5 3 4 4 5 6 6 7 7 8 7 6 5 4 5 6 6 6 5 3 2 5 7 7 7 9 10 12 14
Wind_Direction
267 265 264 262 261 243 229 245 314 29 49 52 46 30 13 352 285 12 74 34 324 295 285 261 266 262 230 247 262 74 224 197 224 237 233 209 232 207 252 232 248 244 219 217 233 221 236 4 199 198 358 289 153 161
282 271 263 257 237 228 222 224 236 40 58 57 66 55 8 13 22 92 32 358 331 260 326 276 268 264 268 297 314 215 354 351 4 283 262 280 210 198 238 240 180 231 226 189 208 228 290 344 313 300 22 2 186 158
272 274 299 250 226 219 211 209 200 166 90 62 60 63 53 34 46 67 0 342 301 275 259 231 217 239 233 239 236 269 223 314 140 1 309 282 250 297 230 235 236 213 190 235 214 229 231 248 302 308 105 312 183 140
280 279 267 268 235 211 209 210 203 190 153 64 90 44 114 154 12 51 342 343 324 297 281 98 138 219 293 224 221 223 261 269 309 235 26 294 275 339 267 324 257 20 171 247 255 260 197 217 215 213 186 204 146 139
263 294 276 247 247 220 223 214 203 193 188 111 93 26 56 163 292 336 331 330 290 308 320 303 304 180 323 228 229 218 228 240 252 248 224 213 279 265 246 274 251 224 255 260 273 349 150 299 173 167 160 153 145 134
250 253 291 265 234 229 199 187 198 203 207 196 94 45 60 255 11 275 185 36 23 294 288 298 1 279 344 263 221 215 209 221 236 230 245 248 226 258 248 250 255 270 259 298 274 76 60 72 67 154 162 149 140 135
244 245 244 255 254 226 206 203 205 215 222 228 264 325 318 260 259 303 22 122 151 349 285 296 281 121 311 274 187 194 206 220 237 231 238 253 233 206 257 255 236 225 184 197 334 157 158 117 78 23 176 141 135 132
240 238 239 243 243 239 221 222 230 236 231 219 272 323 330 210 229 236 149 208 233 276 285 289 299 229 0 228 176 180 194 206 216 240 245 232 237 235 249 241 245 254 275 171 319 291 295 141 111 13 247 152 141 137
240 235 235 244 229 224 229 230 230 227 210 186 206 97 114 203 215 85 237 251 201 271 283 281 296 19 355 315 293 118 281 224 227 221 232 242 230 228 222 234 231 230 226 199 345 113 113 143 133 173 211 177 150 142
239 237 239 234 225 219 219 223 207 171 167 162 155 223 161 138 238 204 159 154 173 250 247 253 272 270 343 314 275 228 184 251 239 222 229 225 243 246 242 253 238 231 212 142 228 156 140 139 188 215 208 182 169 154
236 233 233 230 222 218 216 211 190 163 161 191 193 197 91 206 202 187 209 229 183 214 189 218 235 296 299 287 283 259 274 282 265 200 228 232 234 234 233 237 237 238 222 189 183 233 196 190 194 188 200 187 163 153
233 232 231 229 226 227 215 203 189 183 179 164 104 113 171 211 217 219 205 174 216 256 157 242 66 304 286 266 251 217 223 247 251 347 249 243 243 225 210 215 220 227 206 194 210 213 222 206 205 203 189 169 163 148
227 229 229 225 220 220 211 197 196 187 148 140 160 153 216 178 226 222 190 195 211 176 169 181 269 216 197 247 250 243 216 228 306 220 247 247 51 12 249 221 222 223 226 228 216 222 211 191 171 176 164 161 146 140
223 222 222 219 217 210 199 193 189 172 175 184 170 201 234 183 235 211 265 13 14 295 301 316 294 247 188 231 246 241 254 246 216 219 263 328 6 328 309 276 261 216 210 207 203 191 168 156 152 154 153 147 140 137
210 216 209 207 198 192 180 181 175 166 191 184 200 228 213 239 230 244 282 298 342 339 308 212 216 244 219 241 228 230 245 230 217 240 273 334 320 315 299 274 238 219 191 190 175 161 154 144 141 138 141 136 130 133
189 162 178 177 162 163 161 156 147 130 249 220 231 245 207 242 239 218 261 289 265 217 207 206 240 231 225 237 221 212 245 243 57 349 316 316 320 305 287 257 217 182 176 160 153 151 146 139 136 131 128 126 128 130
149 124 157 153 153 145 156 133 126 203 207 214 224 233 262 287 296 301 233 289 316 293 272 248 224 228 296 221 223 223 253 348 336 318 294 318 299 287 255 185 159 147 143 136 135 140 132 128 126 122 120 123 121 121
128 143 145 146 139 131 120 109 199 204 231 232 248 204 206 265 285 289 281 291 287 265 222 249 302 240 254 287 269 14 317 319 324 313 332 288 276 244 158 145 140 134 129 129 128 131 131 124 121 121 124 122 118 120
147 164 165 159 149 129 157 175 218 240 235 260 244 235 244 260 250 258 283 291 219 224 229 225 243 259 282 293 307 302 305 304 303 306 281 255 252 150 133 132 128 125 125 128 131 125 123 124 125 128 128 128 124 128
119 135 152 162 169 177 136 141 205 269 257 95 230 220 236 278 332 273 274 172 255 317 263 296 302 282 291 295 287 280 285 284 285 302 102 66 61 122 129 125 115 120 118 117 118 118 119 122 125 129 128 129 131 134
119 138 129 146 183 264 298 168 191 260 301 249 140 245 239 190 250 279 49 252 266 331 357 313 305 315 303 285 272 266 270 266 271 29 98 97 92 108 106 117 124 121 120 123 116 122 128 127 129 125 130 126 126 129
126 141 155 201 266 219 257 203 225 187 231 249 219 213 249 214 229 95 272 226 30 21 354 316 314 316 317 322 19 27 4 92 100 97 94 79 90 102 117 122 122 118 120 125 134 134 131 131 131 136 131 126 131 126
138 150 164 180 209 212 253 219 226 206 242 163 179 228 182 261 28 290 122 44 41 350 347 319 320 313 288 308 57 28 24 58 73 68 85 80 78 66 91 128 125 126 128 132 131 132 131 133 140 141 136 140 134 134
135 186 204 210 211 204 184 192 207 252 216 246 213 195 99 48 310 263 77 46 1 359 358 345 330 356 8 72 69 36 33 58 98 81 58 105 102 50 71 83 95 103 120 129 128 130 142 144 146 148 152 148 149 149
233 172 226 214 186 210 205 162 187 194 207 200 169 93 124 191 106 48 55 14 5 4 3 353 335 360 4 20 16 50 38 69 85 111 55 83 101 88 93 92 92 92 119 136 144 144 148 157 160 157 158 161 159 156
249 184 221 269 173 219 204 157 166 176 148 146 155 98 195 188 149 81 53 42 12 7 3 1 336 344 359 5 4 9 15 45 114 115 117 115 134 74 86 88 86 72 79 109 124 132 137 143 148 152 154 154 156 155
275 246 208 243 280 268 215 90 114 141 176 163 142 176 192 122 96 82 333 299 15 9 343 340 324 323 341 356 360 2 46 67 89 98 97 91 83 78 88 89 81 76 84 93 108 121 128 136 148 152 152 158 167 165
315 316 339 2 57 41 63 58 46 41 36 11 176 50 73 41 63 23 288 305 301 292 295 292 284 293 333 2 3 27 53 69 97 104 98 89 84 82 81 79 75 72 70 79 76 86 109 141 156 164 168 166 169 170
313 283 215 52 86 62 37 43 46 30 315 233 83 69 86 63 340 308 283 281 271 257 256 202 184 279 318 4 25 38 36 33 106 104 97 95 85 63 61 69 73 75 79 72 82 87 91 117 146 167 171 172 173 171
44 13 57 48 45 48 25 23 57 43 49 60 85 110 118 88 14 26 28 16 227 200 201 189 176 176 126 42 48 55 45 47 47 54 85 81 80 71 71 75 85 84 84 97 108 100 90 97 107 126 143 157 164 165
24 49 69 65 71 65 65 73 81 85 81 77 79 85 89 144 68 24 19 15 23 183 168 173 166 140 117 80 37 27 86 54 51 62 90 106 105 87 82 78 73 70 81 177 206 218 192 197 181 165 166 168 172 170
98 94 109 103 95 131 198 132 92 76 60 56 39 35 75 117 57 31 8 16 24 36 48 80 104 81 56 36 36 52 55 43 45 55 85 106 110 100 88 65 48 37 20 312 265 252 236 235 229 215 186 176 173 172
111 121 110 116 159 169 151 170 121 111 81 55 35 17 23 33 66 15 8 26 28 25 37 61 77 84 90 83 74 72 67 68 72 81 93 97 96 92 69 50 37 28 20 8 350 291 246 230 211 202 199 183 178 171